Regional Weather Roundup
Issued by NWS Goodland, KS

Home | Current Version | Previous Version | Graphics & Text | Print | Product List | Glossary On
Versions: 1 2 3 4 5 6 7 8 9 10 11 12 13 14 15 16 17 18 19 20 21 22 23 24 25 26 27 28 29 30 31 32 33 34 35 36 37 38 39 40 41 42 43 44 45 46 47 48 49 50
000
ASUS43 KGLD 031459
RWRGLD

GOODLAND FORECAST AREA HOURLY WEATHER ROUNDUP
NATIONAL WEATHER SERVICE GOODLAND KS
900 AM MDT FRI JUL 03 2015

...OFFICIAL OBSERVATIONS...

CITY           SKY/WX    TMP DP  RH WIND       PRES   REMARKS
GOODLAND KS    MOSUNNY   76  57  51 CALM      30.11S
HILL CITY KS   CLOUDY    69  63  81 NE7       30.08R HAZE
IMPERIAL NEB   SUNNY     75  59  57 N3        30.10S
MCCOOK NEB     PTSUNNY   69  63  81 E7        30.09R HAZE
AKRON CO       SUNNY     67  58  72 N12       30.18S
BURLINGTON CO  MOSUNNY   72  56  57 N8        30.16R
LIMON CO       SUNNY     69  57  65 S7        30.21S
$$

...UNOFFICIAL OBSERVATIONS...

CITY           SKY/WX    TMP DP  RH WIND       PRES   REMARKS
COLBY KS       SUNNY     77  59  53 N3        30.10F
GOVE KS          N/A     74  32  21 MISG        N/A
NORTON KS      CLOUDY    63  61  94 N6        30.08S FOG
SHARON SPRINGS   N/A     74  62  66 NE6         N/A
YUMA CO          N/A     73  60  64 CALM        N/A
$$



USA.gov is the U.S. government's official web portal to all federal, state and local government web resources and services.